Time,TemperatureF,DewpointF,PressureIn,WindDirection,WindDirectionDegrees,WindSpeedMPH,WindSpeedGustMPH,Humidity,HourlyPrecipIn,Conditions,Clouds,dailyrainin,SoftwareType,DateUTC
2013-08-22 00:12:00,59.0,54.0,-100.00,SSE,167,5.0,14.0,83,0.00,,,0.09,,2013-08-22 06:12:00,
2013-08-22 00:22:00,59.0,54.0,-100.00,SSE,167,5.0,14.0,83,0.00,,,0.09,,2013-08-22 06:22:00,
2013-08-22 00:32:00,59.0,54.0,-100.00,SSE,167,5.0,14.0,83,0.00,,,0.09,,2013-08-22 06:32:00,
2013-08-22 01:11:00,58.0,55.0,-100.00,NNW,340,3.0,10.0,89,0.00,,,0.09,,2013-08-22 07:11:00,
2013-08-22 01:21:00,58.0,55.0,-100.00,NNW,340,3.0,10.0,89,0.00,,,0.09,,2013-08-22 07:21:00,
2013-08-22 01:31:00,58.0,55.0,-100.00,NNW,340,3.0,10.0,89,0.00,,,0.09,,2013-08-22 07:31:00,
2013-08-22 02:12:00,59.0,55.0,-100.00,WNW,287,6.0,9.0,87,0.00,,,0.09,,2013-08-22 08:12:00,
2013-08-22 02:22:00,59.0,55.0,-100.00,WNW,287,6.0,9.0,87,0.00,,,0.09,,2013-08-22 08:22:00,
2013-08-22 02:33:00,59.0,55.0,-100.00,WNW,287,6.0,9.0,87,0.00,,,0.09,,2013-08-22 08:33:00,
2013-08-22 03:11:00,58.0,53.0,-100.00,SW,235,1.0,9.0,82,0.00,,,0.09,,2013-08-22 09:11:00,
2013-08-22 03:22:00,58.0,53.0,-100.00,SW,235,1.0,9.0,82,0.00,,,0.09,,2013-08-22 09:22:00,
2013-08-22 03:33:00,58.0,53.0,-100.00,SW,235,1.0,9.0,82,0.00,,,0.09,,2013-08-22 09:33:00,
2013-08-22 04:12:00,55.0,53.0,-100.00,SW,219,3.0,5.0,92,0.00,,,0.09,,2013-08-22 10:12:00,
2013-08-22 04:22:00,55.0,53.0,-100.00,SW,219,3.0,5.0,92,0.00,,,0.09,,2013-08-22 10:22:00,
2013-08-22 04:32:00,55.0,53.0,-100.00,SW,219,3.0,5.0,92,0.00,,,0.09,,2013-08-22 10:32:00,
2013-08-22 06:32:00,55.0,52.0,-100.00,SW,216,3.0,5.0,89,0.00,,,0.09,,2013-08-22 12:32:00,
2013-08-22 07:12:00,55.0,50.0,-100.00,SSW,207,3.0,5.0,84,0.00,,,0.09,,2013-08-22 13:12:00,
2013-08-22 07:22:00,55.0,50.0,-100.00,SSW,207,3.0,5.0,84,0.00,,,0.09,,2013-08-22 13:22:00,
2013-08-22 07:32:00,55.0,50.0,-100.00,SSW,207,3.0,5.0,84,0.00,,,0.09,,2013-08-22 13:32:00,
2013-08-22 08:11:00,57.0,52.0,-100.00,SSW,212,3.0,4.0,83,0.00,,,0.09,,2013-08-22 14:11:00,
2013-08-22 08:22:00,57.0,52.0,-100.00,SSW,212,3.0,4.0,83,0.00,,,0.09,,2013-08-22 14:22:00,
2013-08-22 08:33:00,57.0,52.0,-100.00,SSW,212,3.0,4.0,83,0.00,,,0.09,,2013-08-22 14:33:00,
2013-08-22 09:11:00,65.0,55.0,-100.00,SSW,204,1.0,4.0,71,0.00,,,0.09,,2013-08-22 15:11:00,
2013-08-22 09:22:00,65.0,55.0,-100.00,SSW,204,1.0,4.0,71,0.00,,,0.09,,2013-08-22 15:22:00,
2013-08-22 09:33:00,65.0,55.0,-100.00,SSW,204,1.0,4.0,71,0.00,,,0.09,,2013-08-22 15:33:00,
2013-08-22 09:34:00,69.0,54.0,-100.00,NE,53,2.0,4.0,58,0.00,,,-99.99,,2013-08-22 15:34:00,
2013-08-22 09:55:00,69.0,54.0,-100.00,NE,53,2.0,4.0,58,0.00,,,-99.99,,2013-08-22 15:55:00,
2013-08-22 10:05:00,69.0,54.0,-100.00,NE,53,2.0,4.0,58,0.00,,,-99.99,,2013-08-22 16:05:00,
2013-08-22 10:14:00,69.0,54.0,-100.00,NE,53,2.0,4.0,58,0.00,,,-99.99,,2013-08-22 16:14:00,
2013-08-22 10:24:00,69.0,54.0,-100.00,NE,53,2.0,4.0,58,0.00,,,-99.99,,2013-08-22 16:24:00,
2013-08-22 11:12:00,73.0,53.0,-100.00,North,357,3.0,6.0,50,0.00,,,0.09,,2013-08-22 17:12:00,
2013-08-22 11:23:00,73.0,53.0,-100.00,North,357,3.0,6.0,50,0.00,,,0.09,,2013-08-22 17:23:00,
2013-08-22 11:33:00,73.0,53.0,-100.00,North,357,3.0,6.0,50,0.00,,,0.09,,2013-08-22 17:33:00,
2013-08-22 12:12:00,77.0,54.0,-100.00,NNE,27,3.0,8.0,45,0.00,,,0.09,,2013-08-22 18:12:00,
2013-08-22 12:21:00,77.0,54.0,-100.00,NNE,27,3.0,8.0,45,0.00,,,0.09,,2013-08-22 18:21:00,
2013-08-22 12:32:00,77.0,54.0,-100.00,NNE,27,3.0,8.0,45,0.00,,,0.09,,2013-08-22 18:32:00,
2013-08-22 13:22:00,79.0,52.0,-100.00,NW,307,5.0,10.0,39,0.00,,,0.09,,2013-08-22 19:22:00,
2013-08-22 13:32:00,79.0,52.0,-100.00,NW,307,5.0,10.0,39,0.00,,,0.09,,2013-08-22 19:32:00,
2013-08-22 14:11:00,81.0,52.0,-100.00,NE,55,4.0,18.0,37,0.00,,,0.09,,2013-08-22 20:11:00,
2013-08-22 14:23:00,81.0,52.0,-100.00,NE,55,4.0,18.0,37,0.00,,,0.09,,2013-08-22 20:23:00,
2013-08-22 14:32:00,81.0,52.0,-100.00,NE,55,4.0,18.0,37,0.00,,,0.09,,2013-08-22 20:32:00,
2013-08-22 14:34:00,83.0,55.0,-100.00,NNE,22,8.0,13.0,39,0.00,,,0.09,,2013-08-22 20:34:00,
2013-08-22 15:13:00,83.0,55.0,-100.00,NNE,22,8.0,13.0,39,0.00,,,0.09,,2013-08-22 21:13:00,
2013-08-22 15:22:00,83.0,55.0,-100.00,NNE,22,8.0,13.0,39,0.00,,,0.09,,2013-08-22 21:22:00,
2013-08-22 15:34:00,82.0,54.0,-100.00,NNW,332,4.0,13.0,38,0.00,,,0.08,,2013-08-22 21:34:00,
2013-08-22 16:13:00,82.0,54.0,-100.00,NNW,332,4.0,13.0,38,0.00,,,0.08,,2013-08-22 22:13:00,
2013-08-22 16:24:00,82.0,54.0,-100.00,NNW,332,4.0,13.0,38,0.00,,,0.08,,2013-08-22 22:24:00,
2013-08-22 17:11:00,85.0,50.0,-100.00,NNE,18,5.0,14.0,30,0.00,,,0.07,,2013-08-22 23:11:00,
2013-08-22 17:22:00,85.0,50.0,-100.00,NNE,18,5.0,14.0,30,0.00,,,0.07,,2013-08-22 23:22:00,
2013-08-22 17:33:00,85.0,50.0,-100.00,NNE,18,5.0,14.0,30,0.00,,,0.07,,2013-08-22 23:33:00,
2013-08-22 18:12:00,82.0,46.0,-100.00,NNE,18,7.0,12.0,28,0.00,,,0.07,,2013-08-23 00:12:00,
2013-08-22 18:23:00,82.0,46.0,-100.00,NNE,18,7.0,12.0,28,0.00,,,0.07,,2013-08-23 00:23:00,
2013-08-22 18:33:00,82.0,46.0,-100.00,NNE,18,7.0,12.0,28,0.00,,,0.07,,2013-08-23 00:33:00,
2013-08-22 19:11:00,82.0,46.0,-100.00,ENE,57,6.0,11.0,28,0.00,,,0.07,,2013-08-23 01:11:00,
2013-08-22 19:21:00,82.0,46.0,-100.00,ENE,57,6.0,11.0,28,0.00,,,0.07,,2013-08-23 01:21:00,
2013-08-22 19:33:00,82.0,46.0,-100.00,ENE,57,6.0,11.0,28,0.00,,,0.07,,2013-08-23 01:33:00,
2013-08-22 20:11:00,76.0,45.0,-100.00,ENE,70,6.0,11.0,33,0.00,,,0.07,,2013-08-23 02:11:00,
2013-08-22 20:22:00,76.0,45.0,-100.00,ENE,70,6.0,11.0,33,0.00,,,0.07,,2013-08-23 02:22:00,
2013-08-22 20:32:00,76.0,45.0,-100.00,ENE,70,6.0,11.0,33,0.00,,,0.07,,2013-08-23 02:32:00,
2013-08-22 20:34:00,70.0,47.0,-100.00,NNW,347,2.0,7.0,44,0.00,,,0.06,,2013-08-23 02:34:00,
2013-08-22 21:12:00,70.0,47.0,-100.00,NNW,347,2.0,7.0,44,0.00,,,0.06,,2013-08-23 03:12:00,
2013-08-22 21:22:00,70.0,47.0,-100.00,NNW,347,2.0,7.0,44,0.00,,,0.06,,2013-08-23 03:22:00,
2013-08-22 21:34:00,68.0,49.0,-100.00,SW,223,2.0,6.0,51,0.00,,,0.02,,2013-08-23 03:34:00,
2013-08-22 22:13:00,68.0,49.0,-100.00,SW,223,2.0,6.0,51,0.00,,,0.02,,2013-08-23 04:13:00,
2013-08-22 22:24:00,68.0,49.0,-100.00,SW,223,2.0,6.0,51,0.00,,,0.02,,2013-08-23 04:24:00,
2013-08-22 22:34:00,67.0,47.0,-100.00,SW,214,2.0,4.0,48,0.00,,,0.00,,2013-08-23 04:34:00,
2013-08-22 23:13:00,67.0,47.0,-100.00,SW,214,2.0,4.0,48,0.00,,,0.00,,2013-08-23 05:13:00,
2013-08-22 23:22:00,67.0,47.0,-100.00,SW,214,2.0,4.0,48,0.00,,,0.00,,2013-08-23 05:22:00,